Location: Huntsville
(41.2590°N, 111.7678°W)
Time: 20:46:39
(UTC+00:00)

Vanguard 3 - Pass Details

Date: 16 June 2021
Orbit: 508 x 3261 km, 33.4° (Epoch: 28 July)

Event Time Altitude Azimuth Distance (km) Brightness Sun altitude
Rises 16:53:04 0° 247° (WSW) 2,794 9.6 53.1°
Reaches altitude 10° 16:55:06 10° 238° (WSW) 2,041 9.1 53.5°
Maximum altitude 16:59:22 38° 170° (S) 1,259 9.0 54.3°
Drops below altitude 10° 17:05:59 10° 105° (ESE) 3,194 11.0 55.4°
Sets 17:09:58 0° 99° (E) 4,640 11.5 56.1°
